Wind_Speed
37 32 31 29 26 25 24 24 25 24 27 34 40 38 35 33 32 31 33 32 24 21 23 23 21 20 21 22 22 24 28 32 35 35 35 34 33 32 30 28 28 31 33 32 29 28 28 28 29 30 33 34 35 35 34 35 34 34 36 37 38 38 37 36 36 35 32 31 33 32 31 33 35 36 34 32 33 34 35 36 36 37 38 39 40 41 40
34 33 33 33 30 29 27 23 22 23 25 30 35 34 32 32 32 28 28 30 27 25 25 25 23 21 22 24 25 27 32 35 36 35 35 36 36 35 33 31 31 32 32 31 31 31 33 33 34 35 35 34 34 35 35 35 35 35 36 38 39 40 40 39 39 38 34 32 32 32 32 34 37 38 35 32 34 36 36 36 37 38 39 40 41 41 41
34 33 34 35 33 31 31 27 25 26 27 28 29 30 29 29 29 25 26 31 33 31 29 28 26 24 24 26 28 30 34 37 37 35 35 37 38 37 35 34 32 30 29 31 33 34 37 39 39 39 38 36 35 35 35 35 34 35 37 38 39 40 41 41 40 38 35 33 31 30 31 36 39 39 35 33 35 37 37 36 38 39 40 41 42 41 41
38 35 35 37 37 34 31 29 29 30 31 33 32 29 28 28 26 24 27 31 31 30 32 31 30 29 29 29 30 32 35 37 37 37 38 38 39 38 37 37 35 32 33 36 38 39 41 42 42 42 42 41 39 38 37 36 34 34 35 36 38 39 38 40 41 39 36 34 31 31 33 37 38 35 34 34 36 37 37 37 38 40 41 42 42 41 41
41 39 37 36 38 37 31 28 32 35 35 35 36 34 34 35 33 31 32 32 31 32 35 35 35 35 34 34 34 35 36 37 37 39 40 39 39 38 38 39 38 39 42 44 44 45 45 44 44 44 45 44 43 42 42 39 35 33 34 35 37 38 39 40 40 38 37 35 32 32 34 35 34 33 33 34 36 38 38 38 39 41 41 42 42 41 41
42 42 41 37 37 39 34 28 32 39 39 36 36 37 38 39 40 40 38 36 37 40 41 40 37 35 34 36 37 36 37 38 39 39 39 39 40 38 37 39 41 43 45 46 47 48 48 47 47 47 46 45 45 45 44 41 37 36 37 38 39 40 40 40 38 36 37 37 35 34 34 34 33 33 34 35 37 38 38 38 39 40 42 43 41 40 44
43 44 44 41 40 43 39 32 30 36 40 40 39 39 40 39 40 41 38 37 39 40 40 40 36 34 36 39 40 40 39 40 39 39 39 40 40 38 37 40 44 46 46 47 49 52 50 49 49 48 46 45 45 44 42 40 39 39 39 40 40 40 39 39 38 36 36 37 37 34 32 33 34 34 35 35 37 38 38 39 39 39 42 42 40 41 46
45 45 45 45 44 44 41 35 31 32 36 38 38 38 39 39 37 36 33 32 32 31 31 33 32 34 39 41 41 42 40 39 39 39 39 39 39 39 41 45 49 50 50 49 52 53 51 49 48 46 44 43 41 39 38 38 38 38 39 40 42 43 41 39 37 34 33 36 36 33 32 34 36 36 35 35 36 38 39 38 37 38 42 42 39 41 42
47 47 47 47 45 44 42 38 34 33 36 37 36 37 38 37 37 37 36 34 32 29 29 31 32 33 36 37 38 38 37 37 37 37 39 41 43 44 47 49 51 52 52 53 53 51 48 45 44 42 41 41 40 39 39 38 36 36 39 40 41 41 39 35 33 32 32 33 34 34 35 37 37 36 36 35 36 38 38 37 36 39 42 42 41 43 43
48 49 49 49 48 46 46 44 40 37 37 38 38 38 38 37 36 36 37 37 36 34 33 33 35 35 34 34 35 36 36 37 38 39 42 44 46 47 47 50 53 54 54 52 49 45 42 40 40 41 41 41 41 42 41 39 37 38 39 39 39 37 35 32 31 31 32 33 34 36 38 38 36 36 35 34 36 37 37 36 37 41 43 43 44 46 46
49 49 47 49 51 51 51 50 48 44 42 42 39 37 37 37 36 35 35 34 36 38 37 35 34 34 33 34 37 39 40 41 42 43 45 46 47 48 49 51 53 52 49 46 42 39 39 39 39 40 41 41 42 42 40 39 38 37 36 36 36 34 33 34 34 32 34 36 37 39 39 37 35 34 34 35 36 37 36 37 40 43 44 44 46 48 48
47 48 47 47 50 53 55 54 51 49 48 46 42 38 37 38 37 37 35 31 33 38 41 40 38 37 36 39 42 42 43 43 44 45 47 47 47 49 51 52 51 47 43 40 38 38 39 39 39 40 40 40 40 40 41 39 35 34 32 31 30 31 34 38 39 37 37 38 38 39 39 37 34 34 34 36 37 37 38 39 41 43 44 45 47 49 49
48 48 48 49 51 54 57 58 55 52 51 50 47 45 45 42 39 39 39 37 35 36 39 42 43 42 42 43 44 44 44 45 46 47 47 45 45 48 51 52 50 46 41 39 38 39 39 39 39 40 40 40 40 41 42 39 34 33 32 30 29 32 35 39 41 40 39 38 38 40 40 36 34 34 36 37 37 37 39 41 42 43 44 45 47 49 50
53 51 49 51 54 55 58 61 60 56 53 52 51 50 49 46 42 41 42 43 42 41 40 41 43 46 47 47 45 43 44 45 47 47 48 47 48 51 52 51 50 47 44 41 40 39 38 38 38 39 41 42 41 40 40 38 35 34 34 33 32 34 37 41 44 43 40 38 40 43 40 35 34 36 37 37 35 36 40 42 44 44 45 45 47 50 51
53 53 49 50 54 57 60 62 61 58 54 52 51 50 49 48 47 47 47 48 49 49 47 45 44 45 48 50 48 45 44 45 46 47 49 51 53 53 50 48 47 47 46 44 43 41 40 38 38 39 40 42 41 40 38 38 38 36 35 33 33 35 39 40 40 39 39 39 41 42 38 35 36 37 37 36 36 39 42 44 44 45 46 48 49 50 51
52 53 52 52 55 59 62 61 58 57 55 53 52 50 50 51 51 51 51 52 52 52 54 54 52 49 49 51 52 51 50 49 48 48 49 51 51 48 44 43 44 45 46 46 45 43 41 39 38 38 39 40 40 40 39 39 40 39 36 34 34 36 36 35 35 37 41 41 41 39 36 35 37 36 36 37 40 42 45 46 46 47 49 50 50 50 50
50 51 54 57 58 59 59 57 54 54 54 54 53 50 49 49 50 50 50 50 49 48 50 54 56 55 53 52 52 51 48 45 44 44 45 45 43 41 41 43 44 45 45 44 43 41 40 39 38 37 37 38 38 39 40 42 41 39 37 36 35 34 33 37 39 42 41 39 38 37 35 34 34 35 36 39 41 44 47 48 48 49 50 50 50 50 51
48 46 46 50 53 55 54 51 48 47 47 49 50 49 49 50 51 52 50 47 43 41 41 43 48 50 51 50 50 47 44 41 42 43 42 41 40 40 40 41 42 42 42 41 39 37 37 37 37 37 37 37 37 37 37 38 37 35 35 35 34 32 33 38 40 38 37 39 39 37 34 33 33 35 36 37 41 46 48 48 48 49 50 49 49 50 51
52 48 43 41 42 46 47 44 41 41 42 43 45 46 48 49 49 48 47 44 42 41 40 41 44 46 47 49 49 48 44 43 44 44 42 41 40 39 37 37 37 39 40 40 38 37 36 36 36 36 35 35 34 33 31 31 33 36 38 38 37 36 36 38 39 39 40 42 41 36 33 33 35 36 36 39 44 47 47 47 48 48 48 48 49 49 50
51 51 48 43 40 40 40 38 38 38 38 39 40 40 42 43 42 42 45 46 46 45 44 45 46 48 49 49 50 49 46 44 44 42 41 40 40 37 36 35 36 37 38 39 38 37 36 35 35 34 34 33 33 32 32 32 35 41 43 41 41 42 43 43 44 46 45 41 36 33 33 34 36 38 40 42 45 46 46 47 47 47 47 48 48 49 49
46 49 50 47 43 42 40 38 38 37 36 36 37 37 37 38 39 41 44 46 45 43 43 45 47 49 50 49 49 48 45 43 42 41 40 39 37 35 34 34 34 35 36 36 36 35 34 34 33 34 34 35 34 35 35 34 36 41 44 43 42 44 47 47 46 45 41 34 31 31 33 36 39 40 42 43 45 45 46 46 46 46 47 48 48 48 49
38 40 41 40 40 40 38 36 36 36 34 33 34 35 36 38 39 40 41 42 42 42 44 47 49 50 50 48 47 44 41 40 40 39 36 33 31 31 32 33 33 34 34 34 33 33 33 33 33 34 36 36 37 37 37 36 36 39 43 44 45 46 46 43 38 34 30 28 30 36 40 42 42 43 43 44 45 45 46 47 47 48 48 48 48 48 46
34 33 32 31 30 30 29 29 30 31 31 30 30 32 34 36 38 40 41 42 44 45 47 47 45 43 41 39 37 33 31 31 32 32 30 30 30 31 32 32 33 33 33 33 33 33 33 34 35 36 37 37 37 36 36 37 37 36 39 41 43 40 37 34 33 33 34 36 41 48 49 46 44 45 45 45 46 46 47 48 49 49 49 48 48 46 44
34 33 31 29 27 26 26 28 30 31 32 32 33 33 34 35 37 39 40 42 42 42 40 37 34 31 31 31 30 28 28 29 30 30 31 32 33 33 33 33 33 33 34 34 34 34 35 36 37 38 38 38 37 37 38 40 39 37 38 39 40 41 43 45 44 45 47 48 50 51 49 46 46 46 46 47 48 48 49 50 50 50 49 48 47 45 43
32 33 31 27 26 27 29 31 32 33 34 35 35 36 36 36 35 34 34 36 37 36 35 33 32 31 31 31 31 30 31 31 32 33 33 33 33 34 34 34 34 34 35 35 35 36 37 38 39 40 40 40 41 42 43 43 43 42 42 43 45 48 52 54 53 53 52 52 50 49 48 47 47 47 48 49 49 50 50 51 50 50 49 48 46 44 42
27 28 26 23 24 26 27 27 27 27 27 28 29 30 31 32 31 31 31 33 35 36 36 35 35 34 34 34 34 34 34 34 34 35 34 34 34 35 35 35 36 37 37 38 38 39 39 40 40 41 41 42 44 46 46 46 46 46 47 47 49 51 53 55 55 54 52 50 49 48 47 48 48 49 50 51 51 51 51 51 50 50 49 47 44 42 41
21 21 20 21 22 24 25 25 26 26 27 29 31 33 34 34 34 34 35 35 36 37 37 37 36 35 35 36 36 36 37 38 38 38 38 37 36 36 37 37 37 38 39 40 40 41 41 41 41 42 42 43 44 45 45 45 47 48 49 50 51 53 54 54 54 53 51 50 48 47 47 49 51 52 53 52 52 52 51 51 51 51 49 45 42 41 41
20 20 19 20 21 22 24 26 27 29 31 33 34 35 36 36 36 36 36 36 36 37 37 37 36 36 36 37 37 37 37 38 39 40 40 40 40 40 40 41 40 40 40 41 41 42 42 42 42 43 43 43 43 43 44 45 47 49 51 51 52 53 52 51 51 51 50 49 48 47 48 51 53 54 53 53 52 51 51 51 51 50 47 43 41 41 41
24 23 23 23 23 24 26 28 29 31 32 33 33 34 34 34 35 36 36 36 36 36 36 36 36 36 37 37 38 38 38 39 40 41 41 41 41 42 42 42 42 42 42 42 42 42 42 43 44 44 43 43 44 44 45 47 49 50 51 50 50 49 48 47 48 49 50 50 50 50 51 54 55 54 53 52 52 51 51 51 50 48 45 43 42 42 41
26 25 24 24 25 27 29 31 33 35 35 36 36 36 36 37 38 38 38 38 38 38 38 38 39 39 40 40 41 41 41 42 42 42 43 42 42 42 42 42 41 42 42 42 42 42 43 44 44 44 44 44 45 46 47 48 49 50 49 48 48 49 49 50 51 53 55 55 54 53 53 54 54 53 53 53 53 52 51 50 48 45 44 43 43 42 39
24 23 23 24 27 30 33 35 36 37 37 37 38 39 39 41 41 41 40 40 40 41 41 42 42 42 42 42 42 43 44 44 43 43 44 44 43 43 43 42 41 40 41 41 42 43 44 44 45 45 45 45 46 47 48 48 49 49 50 51 53 53 54 54 55 56 57 55 53 51 52 52 53 53 54 54 53 52 50 48 46 44 43 43 42 40 38
28 29 30 31 33 34 36 37 37 38 39 39 39 40 41 42 43 43 43 42 42 42 42 42 42 42 42 41 42 43 44 44 44 44 45 45 45 45 46 45 43 43 44 44 43 43 44 45 46 47 47 47 48 48 48 48 50 52 53 53 53 53 53 54 54 54 53 52 51 51 51 53 54 54 54 52 51 50 49 47 45 44 43 42 40 39 37
33 34 35 36 36 36 36 37 38 39 39 40 40 40 40 41 42 43 43 43 42 42 41 41 41 41 42 42 42 42 43 43 44 44 45 46 46 46 46 46 46 45 45 45 44 45 46 47 47 47 48 49 49 48 46 45 46 46 46 47 49 50 51 51 50 49 50 51 52 52 52 52 52 52 51 51 50 49 48 47 44 42 41 40 38 37 36
34 35 37 38 39 39 39 39 39 39 39 38 38 38 38 39 40 41 42 42 43 42 42 42 42 42 43 43 43 43 43 43 44 45 45 46 46 46 47 47 47 46 46 46 46 46 46 46 46 47 48 49 48 47 46 46 46 45 45 46 46 45 45 45 46 48 51 52 51 50 50 49 50 49 49 50 49 47 45 43 41 40 38 37 36 35 34
35 37 38 39 39 39 39 38 38 38 37 37 36 36 36 37 38 39 41 42 42 43 43 43 43 43 44 44 45 45 45 45 46 46 47 47 47 47 47 47 48 48 48 48 47 46 47 47 47 48 49 49 49 48 48 49 49 47 46 45 43 42 44 47 49 51 53 52 50 48 48 48 49 49 48 48 47 45 42 41 40 38 36 34 33 33 32
33 34 34 34 34 34 34 35 35 35 36 36 36 36 36 36 37 38 39 40 41 41 42 43 43 44 45 46 47 47 48 48 49 49 49 50 50 50 50 51 51 51 51 49 48 47 48 48 48 49 50 50 50 49 49 49 48 46 44 44 45 47 50 52 51 51 52 52 51 50 48 48 48 47 46 46 45 44 42 40 38 35 33 31 31 30 29
30 31 31 32 32 32 33 33 33 33 33 34 34 34 35 36 37 38 39 40 41 42 43 43 44 46 47 49 50 51 51 52 51 51 50 50 49 48 47 46 45 44 44 45 44 44 45 46 48 49 50 50 49 49 49 49 49 47 45 46 47 48 49 49 49 48 48 48 48 47 46 45 45 45 44 43 41 40 38 36 34 31 30 29 28 27 27
30 30 30 31 31 31 32 32 32 32 32 32 33 34 35 36 38 40 41 43 44 45 46 47 48 49 50 52 53 53 54 53 51 49 48 46 44 43 42 42 42 41 41 42 43 44 46 47 48 48 49 49 49 49 49 48 47 46 45 45 45 45 45 44 43 42 41 40 40 40 40 39 39 39 38 36 35 34 33 31 30 29 28 27 26 26 26
28 29 29 30 30 30 30 31 31 32 32 33 34 36 37 39 41 43 45 47 48 49 50 51 51 52 54 54 53 53 52 50 47 44 42 40 39 41 42 44 46 46 45 43 43 43 44 45 46 46 47 48 48 47 46 45 44 43 43 42 41 40 39 37 36 35 34 33 33 33 32 32 32 32 32 32 32 31 31 30 29 28 28 27 27 26 26
27 28 28 29 29 29 30 31 32 34 35 36 38 39 40 41 42 44 45 47 49 50 52 53 53 54 55 54 52 51 49 45 43 40 37 36 39 43 44 42 42 43 43 43 42 42 42 42 42 43 43 44 43 42 41 40 39 38 38 37 36 35 34 33 32 31 30 30 30 30 30 30 30 31 31 32 32 32 32 31 30 29 29 28 27 27 26
26 27 28 29 30 31 32 33 34 35 35 36 36 36 37 39 41 43 45 47 49 50 51 52 53 53 54 54 52 51 48 44 41 39 37 35 36 39 39 36 35 37 39 39 39 39 39 39 40 40 39 39 38 38 37 36 35 34 33 32 32 31 31 30 30 30 31 31 32 32 32 31 31 31 31 32 32 32 32 31 30 30 29 28 28 28 27
26 28 29 30 32 32 32 32 31 31 30 30 32 34 36 39 40 42 43 43 43 44 45 46 48 49 51 51 51 49 46 42 40 40 41 40 38 37 34 32 31 32 32 32 33 34 35 36 36 35 34 34 33 33 32 31 30 30 30 29 29 28 28 29 29 30 30 30 30 31 31 31 31 31 31 31 31 32 32 31 30 30 30 29 29 28 27
27 28 29 29 29 28 28 27 26 26 27 29 31 33 35 35 34 34 33 33 33 34 35 36 38 39 39 39 38 37 35 33 33 34 37 38 39 40 38 36 32 29 27 28 29 30 31 31 31 30 29 29 29 28 28 28 28 28 27 27 27 27 27 28 29 29 29 29 29 29 29 29 30 30 31 31 31 30 30 30 29 29 29 29 29 28 27
25 24 23 23 22 22 21 21 22 23 25 27 28 28 27 27 26 26 26 25 25 24 24 23 23 23 23 23 23 21 21 21 22 23 24 25 27 30 31 30 27 25 25 26 26 27 27 27 27 27 27 27 27 27 26 26 26 25 25 25 25 26 26 27 28 29 29 29 29 28 28 28 28 29 30 30 29 28 27 27 26 26 26 26 26 26 25
20 19 17 17 17 17 17 18 19 21 22 22 22 21 20 20 20 20 20 18 17 16 15 14 13 12 11 10 11 13 14 16 18 20 21 21 22 23 23 23 23 23 24 24 24 24 25 25 26 27 27 26 25 25 25 24 24 24 24 24 25 26 27 28 29 30 30 30 30 29 28 27 27 28 29 29 28 27 25 24 24 24 24 24 24 23 23
17 16 15 15 14 14 14 15 16 17 17 17 16 16 16 16 17 16 16 15 13 13 12 11 10 9 7 6 8 12 15 17 18 18 18 18 18 19 19 19 20 21 22 22 22 22 23 25 25 26 25 25 24 24 24 24 24 24 24 25 25 26 27 28 29 29 30 30 29 28 27 27 27 28 28 29 28 28 26 25 24 23 23 22 23 23 23
14 14 15 14 13 12 12 13 13 14 14 14 14 14 14 14 14 14 13 13 12 11 11 10 8 7 7 7 8 10 12 12 13 13 14 14 14 14 15 16 17 18 19 20 20 21 22 24 24 24 24 24 24 24 23 23 24 24 24 24 24 24 24 25 26 27 27 27 27 27 26 25 25 26 27 28 29 29 28 27 27 25 25 24 25 25 25
13 13 14 14 13 13 13 13 13 13 13 14 14 14 14 14 13 12 12 12 11 10 9 8 7 6 6 6 7 8 9 10 11 12 13 13 13 13 14 15 16 18 18 19 20 21 22 23 23 23 24 24 24 24 23 24 24 23 21 20 19 18 19 20 22 24 25 26 26 26 26 25 25 25 25 27 28 28 28 28 27 27 26 26 26 26 26
13 14 15 15 14 14 15 15 15 15 14 14 15 15 14 13 13 13 13 13 12 11 10 10 9 8 8 8 8 10 11 12 13 14 14 15 15 15 16 17 18 18 19 20 20 21 22 23 23 23 24 24 25 24 24 22 20 18 16 15 16 16 17 18 19 21 22 24 24 24 25 25 24 24 24 24 26 27 28 27 27 27 26 26 26 26 25
14 14 15 15 15 14 15 15 15 15 15 15 15 15 15 14 14 13 14 13 13 12 12 12 11 11 11 12 12 13 13 14 14 15 15 16 16 17 17 18 19 19 20 20 21 22 23 24 25 25 25 25 25 24 21 17 16 15 16 17 18 18 17 18 18 19 21 22 23 23 23 23 23 23 22 23 24 25 26 26 26 26 26 26 26 25 25
13 14 14 15 14 14 14 14 15 15 15 15 15 16 15 15 14 14 14 13 13 12 12 13 13 13 13 14 14 15 15 15 15 16 17 17 18 19 19 19 20 20 21 22 23 23 24 25 25 25 25 24 22 20 17 16 16 18 19 20 20 20 19 19 20 20 21 22 23 23 23 23 23 23 23 23 23 24 24 25 25 25 25 25 25 25 25
14 14 15 15 14 14 14 14 14 14 14 14 15 15 16 16 16 15 15 15 14 14 15 15 15 15 15 15 15 16 16 17 17 17 17 17 18 19 19 18 19 20 21 22 23 23 23 24 24 24 23 22 20 19 18 19 20 22 23 23 23 23 22 22 21 22 22 23 23 24 24 23 23 23 23 23 23 23 23 23 24 25 25 25 25 25 25
Wind_Direction
215 213 215 220 226 230 232 229 227 228 228 224 223 227 234 240 246 249 241 238 249 263 265 268 272 273 277 279 281 282 280 279 284 292 300 302 299 299 304 308 305 301 302 301 298 297 296 294 295 297 300 303 303 301 299 298 296 294 291 288 285 282 280 280 282 284 280 275 278 286 291 293 292 287 288 298 303 302 303 304 305 305 306 307 308 307 307
208 203 210 215 218 228 236 232 223 220 223 224 225 231 238 242 248 251 240 237 251 263 265 270 272 270 273 275 275 277 277 280 287 293 295 295 295 298 302 306 303 296 295 298 299 301 302 301 301 300 300 301 300 298 297 296 295 293 289 286 283 281 281 281 281 282 280 276 279 284 288 292 289 285 287 295 302 304 305 305 306 306 307 307 307 307 308
204 201 207 211 212 220 228 229 225 221 221 225 231 236 239 242 250 251 240 241 252 258 261 264 263 262 266 269 270 274 277 281 285 288 289 291 294 297 299 304 304 296 295 300 302 304 306 304 302 301 300 299 298 296 296 295 294 291 288 286 283 281 282 280 277 278 279 279 281 285 290 290 287 283 285 292 300 305 305 305 306 307 306 306 306 308 310
207 205 207 209 210 214 220 225 224 222 225 231 234 237 236 238 247 250 246 247 252 256 258 259 258 259 263 268 270 272 275 279 283 286 288 291 293 294 296 301 303 301 301 303 302 302 301 300 300 301 300 299 298 297 296 295 293 291 288 286 283 282 281 275 271 275 280 280 282 287 290 289 287 284 283 289 298 303 303 304 306 306 305 306 307 309 312
212 211 210 211 212 212 213 217 217 216 221 227 229 231 232 234 239 243 245 247 248 248 250 252 256 259 262 268 272 274 276 279 282 285 288 290 290 291 294 297 300 300 299 298 298 299 297 297 300 300 299 298 297 296 295 295 295 292 288 286 283 282 280 273 271 276 280 278 279 285 287 286 287 286 285 289 297 301 302 303 304 305 305 306 308 309 312
216 217 214 212 214 216 216 215 215 216 218 219 222 226 228 230 232 231 229 231 233 236 241 246 252 258 262 266 270 273 276 276 277 281 284 285 287 288 290 292 295 297 295 292 295 298 297 297 298 297 296 295 294 294 294 296 296 293 290 289 286 282 280 278 278 280 277 272 273 278 282 285 289 291 289 291 296 300 301 302 302 303 304 305 307 310 314
214 218 217 215 217 219 220 219 218 221 222 220 219 223 228 231 232 230 228 228 229 233 237 240 245 252 257 260 262 266 270 271 272 275 278 281 283 282 282 286 290 291 290 288 293 297 295 294 294 292 291 292 292 294 296 297 296 293 293 292 286 281 282 284 284 278 272 270 270 271 277 285 291 292 291 292 296 299 300 299 299 302 304 305 307 312 316
211 214 216 218 219 220 222 222 220 222 226 225 224 227 231 233 234 237 240 240 239 238 237 237 240 246 250 254 258 262 264 265 268 273 275 276 274 273 277 283 285 286 286 287 291 294 292 290 290 290 291 293 294 295 296 297 298 298 300 297 287 281 282 284 281 273 271 274 271 270 279 289 292 291 290 292 296 298 298 296 298 304 306 306 307 311 315
213 214 215 217 219 221 223 223 223 223 225 226 229 233 237 239 242 245 247 248 249 246 241 239 240 242 245 250 255 257 259 263 267 269 269 268 269 272 277 281 283 284 286 287 290 290 288 288 289 290 291 292 293 293 294 297 300 302 302 298 289 282 276 276 276 274 276 277 272 272 284 292 291 288 288 291 295 298 296 293 297 306 308 305 306 308 310
213 214 216 218 220 222 224 224 224 225 225 226 229 232 236 240 244 248 250 252 255 255 251 247 245 244 245 247 250 252 255 259 260 260 260 263 269 273 276 279 282 284 287 288 288 287 287 288 289 289 289 290 291 293 296 299 302 305 303 296 288 279 270 272 280 281 280 279 275 278 287 291 287 284 285 290 296 299 296 291 294 303 305 304 304 305 308
212 210 212 217 220 222 225 225 225 224 225 226 226 228 235 239 240 245 249 251 253 255 255 250 244 240 240 240 241 243 245 248 249 252 256 261 267 272 274 276 279 284 286 285 284 286 289 291 290 289 289 290 291 293 296 300 305 308 306 297 288 278 271 277 285 284 281 281 279 281 285 286 283 281 284 290 296 299 297 292 293 300 303 303 304 305 309
214 214 213 217 221 223 224 225 225 224 225 226 224 226 234 237 238 243 249 249 250 252 252 251 245 239 236 236 237 238 240 243 247 252 257 261 265 270 272 274 278 282 280 278 280 285 290 293 292 291 291 291 292 294 297 301 304 304 302 298 290 281 278 282 284 282 281 281 278 278 279 280 279 280 285 289 292 295 296 294 295 299 301 301 304 307 311
212 214 215 218 221 223 223 224 226 226 225 227 228 229 232 234 237 245 250 251 252 251 250 251 251 247 243 242 242 242 244 247 250 254 259 263 265 269 272 275 278 280 278 276 279 283 287 290 290 289 290 292 293 294 296 299 300 297 294 293 289 285 284 283 279 277 279 280 276 274 275 277 278 280 285 287 288 293 297 297 296 297 299 301 305 309 313
210 209 209 213 217 220 221 222 225 226 226 229 232 234 234 233 236 245 250 252 254 254 252 252 252 251 250 249 248 249 251 253 256 260 263 265 267 270 274 277 278 279 279 279 280 283 286 286 284 284 286 287 289 291 292 294 296 294 291 290 289 288 286 280 272 270 276 279 274 272 274 277 279 280 282 284 287 294 299 299 297 297 300 303 306 309 312
209 208 206 208 213 218 220 221 223 225 227 231 234 237 239 239 241 246 251 254 256 256 254 254 252 252 252 251 252 255 256 259 263 266 267 267 269 271 275 277 279 281 283 284 285 287 288 287 286 285 284 285 287 288 289 290 291 291 290 289 288 288 285 274 262 264 276 279 273 271 274 277 276 277 280 284 289 295 299 300 300 300 303 305 307 309 311
209 210 210 210 211 215 218 220 223 225 227 231 236 239 244 247 248 249 250 253 255 255 254 254 253 252 252 254 258 261 262 264 267 269 269 269 270 271 273 276 279 282 284 286 288 289 290 289 289 288 287 287 288 288 288 287 287 288 288 287 287 287 277 261 257 271 282 279 272 271 273 272 272 276 283 288 291 295 300 304 304 303 305 307 308 310 311
220 220 219 218 217 219 220 221 224 226 228 232 236 240 244 247 248 248 249 252 254 252 251 252 253 255 256 258 261 264 265 267 268 269 270 270 270 271 275 278 280 281 282 284 285 287 288 289 289 288 288 288 289 289 289 287 284 283 284 286 289 285 270 259 266 279 279 271 267 268 267 267 273 281 287 290 293 298 303 305 305 305 307 308 310 311 311
237 235 229 225 224 225 224 223 224 226 227 231 235 239 241 243 244 246 248 251 254 252 251 252 253 255 257 259 261 262 262 263 265 267 268 269 270 274 278 280 281 282 282 283 283 283 284 285 286 287 288 290 292 293 293 292 287 284 286 290 290 286 276 270 273 273 267 264 267 266 264 270 280 287 289 290 295 300 303 305 305 307 308 309 311 311 310
244 242 239 236 234 229 224 222 224 225 227 230 234 236 238 239 243 247 249 251 253 254 255 255 255 256 256 257 258 258 258 259 261 263 264 267 272 276 279 280 282 283 284 284 284 283 282 283 285 288 290 291 293 294 296 296 291 290 294 294 290 288 287 282 273 265 265 270 270 265 266 275 282 286 288 292 297 301 303 305 306 307 308 309 310 309 309
242 243 243 243 240 233 228 226 227 228 229 232 236 237 237 239 243 248 252 254 253 252 251 252 254 257 258 258 258 258 257 258 260 262 266 270 273 275 278 280 282 281 281 281 282 283 284 286 288 290 291 291 292 294 295 293 290 290 292 289 283 285 289 285 272 265 267 272 269 264 268 276 282 288 294 298 302 303 304 305 306 307 308 309 308 308 308
241 244 246 246 242 237 235 235 235 235 238 241 243 244 245 247 249 250 252 256 257 256 255 255 255 256 258 260 259 257 255 256 260 265 269 273 275 276 278 279 278 277 277 278 280 282 285 287 289 291 292 293 294 297 299 297 293 291 289 283 279 281 284 280 272 267 266 265 262 265 276 285 291 297 302 303 304 304 305 306 307 307 308 308 308 308 308
247 246 244 242 240 238 238 241 243 245 246 246 247 248 251 255 257 256 257 260 262 263 263 262 259 257 258 259 259 258 256 258 263 268 271 275 276 277 276 276 276 277 277 278 280 282 285 287 290 291 293 295 297 299 299 297 295 297 294 283 272 272 276 274 268 264 258 255 265 282 295 300 302 305 306 305 305 305 306 307 307 308 308 308 307 307 307
247 242 237 234 236 237 241 248 252 252 249 249 251 254 256 258 260 260 261 263 264 264 264 263 262 262 263 263 264 267 268 269 270 272 275 277 278 277 276 276 278 279 280 281 282 284 286 288 289 290 291 294 295 294 293 293 293 297 295 279 263 263 275 280 275 270 264 265 279 295 303 306 306 306 306 306 307 307 307 307 307 308 308 307 307 307 308
233 230 229 231 235 240 247 254 256 256 256 257 261 263 264 264 265 264 262 261 262 264 266 268 270 271 272 271 272 274 275 276 275 275 276 278 280 280 280 279 279 279 280 282 283 285 287 288 288 290 291 291 291 289 289 291 292 291 288 278 269 272 282 287 285 283 281 282 289 297 302 304 305 306 306 306 306 305 305 305 306 306 306 306 307 308 308
224 220 221 226 233 238 246 252 256 259 262 263 264 265 265 266 267 265 261 260 261 264 269 274 277 280 280 279 278 277 276 276 276 277 278 279 281 282 282 282 282 282 283 283 284 285 286 287 287 288 288 288 288 288 287 288 289 288 286 284 282 283 285 288 290 290 288 288 292 296 299 302 304 304 304 303 302 302 303 304 304 305 305 306 306 306 306
220 220 223 231 237 240 245 250 254 258 260 260 260 261 261 260 260 260 260 262 265 268 271 275 279 282 282 281 280 280 280 280 280 280 281 281 281 282 282 282 284 285 285 285 285 284 284 284 283 284 284 284 285 286 287 288 289 289 288 288 288 288 289 291 292 291 289 290 293 296 298 300 301 301 300 299 299 300 301 302 303 304 304 304 304 304 304
226 234 243 250 252 251 251 253 254 256 258 259 261 263 263 262 262 263 263 264 267 270 274 276 277 278 277 277 278 279 279 280 280 280 280 280 280 280 281 281 281 282 283 283 283 282 282 282 281 281 281 282 283 285 287 287 288 288 288 289 289 289 290 291 291 289 288 290 294 296 298 299 299 298 298 297 298 300 301 302 303 303 302 302 301 302 303
243 248 253 256 258 258 258 258 257 255 255 257 259 261 263 263 264 265 265 265 266 269 272 274 275 276 276 277 278 277 277 279 280 280 281 281 281 281 281 281 280 279 279 279 279 279 279 278 278 278 279 280 282 283 283 284 284 286 287 288 289 289 290 290 289 287 287 292 295 295 296 297 296 295 296 297 298 299 300 301 302 301 300 300 300 300 301
254 257 262 266 268 267 265 264 261 259 257 256 256 257 257 258 260 262 264 265 266 268 270 272 274 275 276 276 276 276 277 278 279 280 280 280 280 280 280 280 279 279 278 276 276 276 275 275 276 277 277 279 280 280 281 282 283 285 286 286 287 287 286 285 284 284 288 292 294 294 294 293 293 293 294 295 297 298 299 300 300 300 299 299 299 299 298
267 273 277 278 277 275 272 268 266 265 264 263 262 262 261 260 262 264 265 267 269 272 273 274 274 275 276 276 277 277 278 278 278 279 279 278 278 278 278 278 278 278 277 274 273 274 274 274 275 276 277 279 280 281 282 283 285 285 284 283 283 284 284 283 283 285 288 292 293 292 292 292 291 292 294 295 296 296 296 298 299 299 299 299 298 297 296
272 273 272 271 271 272 271 270 269 269 268 268 268 268 268 267 268 270 271 272 274 275 276 276 276 277 277 277 278 278 279 279 279 279 280 280 280 279 279 278 276 275 274 274 275 275 275 275 276 277 277 279 279 281 282 283 284 284 282 281 282 283 283 283 283 285 288 290 291 291 291 291 291 292 294 294 295 295 295 295 296 297 299 299 297 295 294
262 261 261 262 264 267 269 270 272 272 272 272 271 271 272 273 274 275 276 277 277 276 276 275 276 276 276 276 276 277 278 279 279 279 279 279 279 279 278 277 276 275 275 275 276 275 275 275 276 277 279 280 280 280 281 282 282 281 281 281 283 283 283 283 284 286 287 289 290 291 290 290 291 292 293 293 292 292 292 292 292 295 297 298 296 294 293
256 258 260 262 264 265 267 268 269 271 272 272 273 273 274 275 276 277 278 277 276 275 274 274 274 275 275 275 275 275 275 276 277 277 277 277 277 277 276 275 275 274 274 274 273 273 273 275 277 279 281 281 281 282 283 282 282 281 281 283 285 285 284 284 284 286 288 290 292 292 291 290 290 290 290 289 288 288 289 288 288 291 295 295 294 293 291
258 260 262 264 264 265 266 266 267 268 269 270 270 270 270 271 272 273 274 274 275 275 276 276 276 276 277 277 277 276 275 275 275 276 276 276 277 276 275 275 274 274 273 273 274 274 276 277 279 280 280 280 279 280 282 282 283 284 285 286 287 286 284 284 287 290 292 292 292 291 290 289 288 287 286 285 285 285 286 286 287 290 292 291 290 289 288
258 260 262 263 264 264 265 266 267 268 268 268 269 268 268 268 268 269 270 271 273 273 274 275 275 275 275 275 275 275 275 275 275 275 275 275 276 276 276 276 276 276 275 275 276 276 277 278 278 277 277 278 279 280 281 282 285 286 285 284 284 285 286 289 292 293 292 291 290 291 290 288 286 284 283 283 284 284 283 285 288 289 288 286 285 285 286
255 258 260 262 263 264 264 265 266 267 268 268 269 269 269 269 269 269 269 270 270 270 271 272 272 273 273 273 273 273 273 273 273 273 274 274 275 276 277 278 278 278 277 276 276 276 276 275 274 273 273 274 277 280 282 284 285 285 283 284 287 290 291 292 292 290 289 288 289 290 289 287 285 284 284 284 284 284 285 286 287 287 285 283 284 285 287
256 258 260 262 264 265 266 267 267 267 268 269 270 271 271 272 272 272 272 271 271 270 270 270 271 271 272 272 273 273 273 273 274 275 276 277 277 279 280 280 278 276 274 274 273 273 273 273 273 273 274 276 279 282 283 285 285 285 286 288 291 291 291 290 290 289 288 288 288 287 286 285 283 283 283 283 284 286 287 287 286 285 283 283 284 285 286
258 260 262 264 266 267 268 269 270 270 271 271 272 272 272 273 273 273 273 273 273 272 271 271 270 270 270 271 272 273 274 275 276 277 278 280 281 281 279 274 270 269 270 271 271 271 272 273 275 276 278 280 281 282 282 284 285 286 287 288 290 290 291 292 292 291 289 288 286 285 283 282 280 280 281 282 284 286 287 286 286 285 284 283 284 283 284
258 261 264 265 266 267 268 270 271 272 272 272 273 274 275 275 276 276 277 276 276 275 274 273 272 271 270 271 272 272 274 275 277 278 279 280 281 279 275 270 267 266 267 268 270 271 272 274 277 278 279 279 280 281 283 285 286 287 287 288 290 293 294 295 294 292 291 290 288 286 284 283 282 282 284 286 287 287 286 286 285 284 283 283 282 281 281
258 261 263 265 267 268 269 270 271 273 274 276 277 279 280 281 281 281 280 280 279 278 277 276 275 274 273 273 274 274 275 276 277 277 277 278 279 277 273 268 264 264 265 267 270 273 274 276 277 278 278 279 280 283 285 287 288 289 290 292 293 294 294 294 293 291 290 289 289 289 288 288 287 287 288 288 288 287 286 286 285 284 283 282 282 281 281
258 261 263 265 267 270 272 275 277 279 281 283 284 285 286 287 286 286 286 285 284 283 282 281 280 278 276 275 274 274 273 272 271 272 273 274 274 272 269 266 265 266 267 268 269 271 273 275 276 277 279 281 284 286 287 289 289 290 291 292 292 292 292 292 291 289 289 289 290 291 291 290 290 289 288 287 286 286 286 285 285 284 284 283 282 281 281
261 264 267 270 273 276 279 282 284 285 286 287 288 289 289 290 290 290 290 290 290 289 286 284 280 278 276 274 272 271 269 267 265 265 266 266 263 261 265 271 274 271 267 266 267 270 271 273 275 278 281 284 285 286 287 287 288 288 289 290 291 291 292 291 291 290 290 290 290 291 291 291 291 289 288 287 286 286 285 285 285 284 283 282 280 280 280
269 272 275 277 278 280 281 282 282 284 285 287 288 290 290 291 292 292 293 294 295 295 290 284 280 278 276 274 272 269 266 264 262 262 264 263 259 258 263 272 275 272 269 269 271 272 273 275 278 281 282 283 284 285 286 286 286 286 287 289 290 291 291 291 292 292 292 292 292 292 292 292 291 290 288 287 286 285 285 285 284 282 281 279 279 279 279
276 277 276 276 276 275 276 278 280 283 286 288 290 291 292 293 293 292 293 300 308 309 304 297 294 291 286 280 274 268 262 257 259 264 267 266 262 259 262 268 272 273 274 274 273 274 276 278 279 279 279 281 282 284 284 284 285 286 288 290 291 293 294 295 296 296 297 296 296 294 293 292 291 289 288 286 285 285 285 285 283 282 280 279 279 279 278
276 273 272 273 274 274 277 280 283 285 287 290 293 296 297 297 295 295 299 310 322 327 325 322 321 319 309 288 267 255 250 254 263 271 272 270 267 265 265 268 271 272 272 272 273 275 277 277 276 277 279 281 282 283 284 285 288 290 292 294 296 298 299 299 298 297 297 296 295 294 292 291 289 288 286 286 286 286 285 284 283 283 283 282 281 281 281
267 267 271 275 278 280 282 285 286 288 290 294 299 304 305 304 303 304 309 316 323 327 329 332 334 332 322 293 259 250 254 261 268 271 270 268 267 267 266 266 266 267 268 269 272 274 275 275 277 279 281 283 284 285 286 289 292 294 296 298 298 298 298 298 298 298 298 298 297 294 290 287 285 284 284 284 284 284 284 283 282 282 281 280 280 280 280
263 269 276 281 285 287 287 287 289 292 294 298 304 309 312 313 313 313 315 320 322 323 325 327 324 313 300 285 269 260 261 266 269 270 271 271 271 269 266 266 265 266 268 272 275 276 278 279 281 282 283 284 285 287 289 292 294 296 297 297 297 298 300 302 304 306 307 308 308 305 300 293 287 284 282 281 281 281 280 279 279 279 279 278 278 278 278
267 275 280 283 286 287 286 287 290 295 298 302 307 312 315 318 319 318 320 324 326 326 325 325 323 314 301 286 272 265 267 275 280 282 282 281 280 277 274 273 272 273 275 277 278 279 280 281 282 283 285 286 288 290 292 294 295 295 295 296 298 302 307 310 312 313 314 316 318 319 315 307 298 290 284 281 280 279 279 279 279 278 278 278 278 278 278
273 278 280 280 282 284 286 288 293 297 300 303 306 309 310 312 313 313 314 316 319 321 320 317 315 312 306 295 287 283 284 286 287 286 284 284 284 283 282 281 281 282 282 283 283 284 285 286 287 288 289 290 291 293 294 293 291 289 288 291 295 300 305 308 312 314 315 317 320 323 323 319 312 302 293 286 282 280 280 280 280 279 278 278 278 278 278
274 276 277 278 280 283 288 292 297 301 303 303 303 303 304 305 306 307 308 309 310 311 309 306 304 304 302 298 294 292 290 289 288 288 288 289 289 289 289 290 290 289 288 287 287 288 288 289 290 291 292 292 294 294 293 289 285 285 287 291 294 297 300 303 306 309 312 315 318 322 325 326 323 316 307 297 290 285 282 281 281 280 279 277 276 276 277
271 272 276 279 284 290 295 298 299 300 302 302 303 304 305 306 307 307 309 309 310 308 306 304 303 302 301 300 298 298 297 297 295 294 293 293 293 292 293 293 292 290 290 290 290 290 291 292 293 294 294 294 294 292 288 284 284 287 290 293 295 297 298 301 303 306 309 312 315 318 321 324 326 324 319 312 305 297 291 286 283 280 279 278 277 275 274
271 274 278 283 289 293 296 297 297 298 301 305 308 309 310 311 312 312 312 313 313 312 311 310 308 307 306 305 304 303 303 303 303 301 299 296 295 295 295 295 295 293 292 292 292 293 293 293 293 293 293 292 290 287 284 284 287 290 292 294 294 295 296 298 300 303 307 310 312 314 316 318 321 322 322 319 315 311 304 296 289 284 281 279 276 273 271
Height
5834 5836 5839 5842 5844 5846 5848 5850 5852 5853 5853 5854 5854 5855 5858 5859 5859 5860 5862 5863 5864 5865 5866 5868 5869 5871 5872 5872 5872 5873 5872 5871 5871 5872 5873 5873 5874 5875 5876 5877 5876 5874 5873 5873 5873 5873 5873 5873 5872 5872 5872 5871 5870 5870 5869 5868 5866 5865 5863 5860 5858 5856 5854 5854 5853 5851 5850 5849 5847 5846 5845 5844 5843 5842 5841 5841 5839 5838 5837 5834 5832 5830 5829 5827 5825 5823 5821
5832 5834 5836 5840 5842 5843 5844 5846 5848 5850 5851 5851 5852 5854 5855 5855 5856 5858 5860 5861 5862 5863 5864 5865 5867 5868 5869 5869 5869 5870 5870 5869 5869 5870 5870 5869 5870 5872 5873 5874 5874 5872 5871 5870 5869 5869 5868 5868 5867 5867 5867 5867 5866 5865 5864 5863 5862 5860 5858 5856 5853 5851 5850 5849 5847 5846 5845 5844 5842 5841 5841 5840 5839 5838 5837 5836 5835 5833 5831 5829 5827 5826 5824 5822 5820 5817 5815
5829 5832 5835 5837 5839 5840 5842 5843 5845 5847 5849 5850 5851 5851 5852 5852 5853 5855 5857 5857 5858 5860 5862 5863 5864 5865 5865 5865 5866 5867 5867 5866 5866 5867 5867 5868 5868 5869 5870 5870 5870 5869 5868 5867 5866 5865 5864 5863 5862 5862 5862 5862 5861 5860 5859 5858 5857 5855 5853 5851 5849 5847 5846 5844 5842 5839 5838 5838 5838 5837 5837 5836 5835 5834 5833 5832 5830 5829 5827 5825 5823 5821 5819 5817 5815 5813 5810
5825 5829 5831 5833 5835 5837 5838 5839 5841 5844 5846 5846 5847 5847 5848 5848 5849 5851 5852 5852 5854 5857 5859 5860 5861 5861 5862 5862 5863 5864 5864 5863 5864 5864 5865 5866 5866 5866 5865 5865 5865 5864 5864 5864 5863 5863 5862 5860 5859 5857 5856 5856 5855 5854 5853 5852 5851 5850 5848 5847 5844 5843 5842 5841 5838 5835 5833 5834 5834 5833 5833 5833 5831 5830 5829 5827 5826 5825 5823 5821 5819 5817 5815 5812 5810 5808 5806
5821 5824 5827 5830 5832 5834 5834 5834 5837 5839 5840 5841 5841 5842 5842 5843 5845 5847 5848 5850 5853 5855 5856 5856 5857 5858 5859 5859 5860 5861 5861 5861 5861 5861 5861 5862 5862 5862 5861 5860 5860 5860 5860 5860 5860 5859 5858 5857 5856 5854 5852 5851 5849 5848 5846 5846 5846 5845 5844 5842 5841 5839 5838 5836 5836 5836 5833 5831 5830 5829 5829 5829 5827 5826 5824 5823 5822 5820 5818 5817 5814 5812 5810 5807 5805 5803 5801
5817 5820 5824 5827 5830 5830 5829 5830 5832 5834 5834 5834 5835 5836 5837 5838 5839 5840 5843 5846 5849 5850 5851 5853 5854 5855 5856 5857 5857 5858 5858 5858 5858 5858 5858 5858 5857 5857 5857 5857 5857 5857 5857 5856 5856 5855 5854 5853 5852 5850 5848 5846 5844 5842 5841 5841 5841 5839 5838 5838 5837 5835 5833 5832 5832 5833 5830 5827 5826 5825 5824 5824 5822 5821 5819 5819 5818 5816 5814 5812 5810 5808 5805 5802 5801 5799 5797
5814 5817 5821 5824 5824 5824 5824 5825 5828 5829 5829 5829 5830 5830 5831 5832 5834 5836 5838 5841 5844 5846 5848 5850 5852 5853 5853 5853 5853 5854 5855 5855 5855 5855 5855 5854 5853 5852 5852 5853 5855 5855 5855 5854 5852 5851 5850 5849 5847 5845 5843 5840 5838 5837 5836 5836 5835 5834 5833 5833 5831 5829 5828 5828 5827 5826 5824 5822 5821 5820 5819 5819 5817 5816 5815 5815 5813 5811 5809 5807 5805 5803 5800 5798 5797 5795 5793
5810 5813 5816 5818 5819 5821 5821 5822 5823 5824 5825 5826 5826 5825 5826 5828 5830 5833 5835 5838 5841 5843 5845 5847 5848 5848 5849 5849 5850 5850 5851 5851 5851 5852 5851 5850 5849 5849 5849 5850 5851 5851 5852 5851 5849 5846 5845 5844 5842 5839 5837 5835 5833 5832 5830 5830 5830 5829 5829 5828 5824 5822 5823 5823 5821 5819 5817 5817 5815 5815 5814 5813 5812 5812 5811 5811 5808 5806 5804 5802 5801 5798 5795 5793 5793 5792 5790
5805 5809 5812 5813 5816 5819 5819 5819 5819 5820 5821 5823 5824 5824 5824 5825 5827 5829 5831 5833 5836 5839 5842 5843 5844 5844 5845 5846 5846 5846 5847 5847 5848 5848 5847 5846 5846 5846 5846 5846 5846 5846 5846 5846 5844 5842 5840 5839 5837 5834 5832 5829 5827 5826 5824 5824 5825 5824 5822 5820 5816 5814 5815 5817 5815 5813 5812 5812 5811 5810 5809 5809 5808 5808 5807 5806 5803 5801 5799 5798 5796 5794 5791 5790 5789 5788 5786
5799 5804 5807 5810 5813 5815 5815 5816 5817 5818 5819 5820 5822 5823 5822 5822 5824 5826 5827 5830 5832 5835 5837 5839 5840 5841 5841 5842 5842 5842 5843 5843 5844 5844 5843 5842 5843 5844 5843 5842 5840 5840 5840 5840 5839 5838 5836 5835 5832 5829 5827 5824 5822 5820 5819 5819 5819 5817 5815 5812 5809 5808 5809 5811 5812 5810 5807 5806 5806 5805 5804 5804 5803 5803 5802 5800 5798 5797 5795 5794 5792 5790 5788 5785 5784 5783 5781
5794 5798 5802 5805 5808 5810 5811 5812 5813 5815 5816 5816 5820 5821 5819 5818 5822 5823 5825 5828 5829 5831 5833 5834 5835 5837 5837 5838 5838 5838 5839 5839 5840 5839 5839 5839 5840 5839 5838 5837 5836 5836 5836 5835 5834 5833 5831 5829 5827 5824 5821 5819 5816 5815 5814 5814 5813 5812 5810 5808 5806 5806 5806 5807 5808 5806 5803 5800 5800 5799 5798 5798 5798 5797 5796 5795 5794 5792 5791 5790 5788 5786 5783 5780 5778 5776 5775
5789 5794 5797 5800 5803 5805 5806 5807 5808 5811 5812 5813 5817 5818 5814 5815 5819 5820 5821 5824 5826 5828 5830 5830 5831 5832 5833 5832 5832 5832 5833 5834 5834 5834 5834 5835 5836 5834 5832 5831 5831 5832 5832 5831 5830 5828 5826 5823 5821 5819 5816 5814 5812 5811 5809 5809 5809 5808 5806 5805 5804 5804 5804 5803 5803 5801 5798 5796 5795 5793 5791 5791 5792 5792 5791 5790 5789 5788 5787 5786 5784 5781 5778 5775 5772 5770 5768
5784 5787 5790 5793 5796 5798 5801 5803 5804 5806 5809 5811 5812 5811 5810 5813 5816 5816 5817 5820 5821 5823 5826 5826 5827 5828 5828 5827 5828 5828 5829 5829 5829 5830 5830 5831 5830 5827 5826 5826 5825 5825 5826 5825 5825 5823 5821 5819 5816 5814 5812 5810 5808 5807 5806 5805 5805 5804 5802 5801 5800 5800 5800 5798 5797 5795 5793 5791 5789 5786 5785 5786 5786 5786 5785 5785 5784 5784 5782 5780 5778 5776 5773 5770 5766 5763 5761
5779 5781 5783 5786 5789 5791 5795 5798 5800 5803 5806 5805 5804 5804 5806 5810 5812 5812 5813 5815 5816 5818 5820 5821 5821 5822 5822 5823 5824 5825 5825 5825 5825 5826 5826 5826 5824 5822 5821 5821 5820 5819 5819 5818 5818 5817 5816 5814 5812 5810 5808 5806 5805 5804 5803 5802 5800 5799 5798 5797 5796 5795 5794 5792 5791 5789 5787 5786 5783 5780 5780 5782 5782 5781 5780 5780 5779 5779 5777 5774 5772 5770 5767 5764 5761 5758 5755
5775 5777 5778 5780 5782 5785 5790 5793 5795 5798 5800 5799 5798 5800 5802 5804 5807 5809 5810 5810 5811 5813 5814 5815 5816 5816 5816 5817 5818 5820 5821 5821 5821 5821 5820 5819 5818 5816 5816 5815 5813 5811 5810 5810 5810 5809 5809 5807 5806 5805 5803 5802 5801 5801 5800 5798 5796 5794 5793 5793 5792 5790 5788 5786 5783 5781 5781 5780 5777 5775 5777 5777 5777 5776 5776 5775 5774 5773 5771 5768 5766 5764 5760 5757 5755 5752 5750
5770 5772 5773 5774 5775 5779 5783 5787 5790 5793 5795 5794 5795 5796 5797 5799 5802 5805 5805 5806 5807 5807 5807 5808 5809 5810 5810 5811 5812 5813 5815 5815 5816 5815 5814 5812 5811 5811 5811 5809 5807 5805 5804 5802 5802 5801 5801 5800 5799 5798 5797 5796 5795 5795 5794 5792 5791 5789 5788 5788 5787 5786 5785 5782 5778 5776 5775 5774 5772 5772 5773 5773 5772 5771 5771 5769 5768 5766 5764 5762 5759 5756 5754 5751 5749 5746 5743
5767 5768 5769 5770 5773 5775 5779 5782 5785 5788 5790 5790 5791 5793 5794 5796 5798 5799 5800 5801 5801 5801 5801 5802 5803 5804 5805 5805 5805 5805 5806 5807 5808 5808 5807 5806 5805 5805 5805 5803 5801 5800 5798 5797 5797 5796 5795 5794 5792 5791 5791 5790 5790 5789 5787 5785 5784 5784 5784 5783 5781 5780 5779 5778 5775 5773 5770 5768 5767 5768 5768 5767 5766 5766 5765 5763 5761 5759 5757 5755 5752 5750 5747 5745 5742 5740 5737
5761 5763 5766 5769 5771 5773 5775 5778 5782 5784 5785 5786 5788 5790 5792 5793 5792 5793 5795 5795 5795 5795 5795 5796 5797 5798 5799 5799 5799 5799 5799 5799 5800 5800 5800 5800 5800 5800 5799 5797 5795 5793 5792 5791 5791 5791 5790 5789 5787 5786 5786 5785 5785 5784 5782 5780 5778 5778 5778 5777 5775 5773 5773 5772 5769 5768 5765 5763 5762 5763 5762 5761 5761 5760 5758 5757 5755 5753 5751 5749 5746 5744 5741 5739 5736 5734 5731
5756 5758 5761 5766 5769 5771 5773 5776 5778 5780 5781 5782 5783 5785 5787 5787 5787 5788 5789 5788 5788 5789 5789 5790 5792 5793 5794 5794 5794 5794 5794 5793 5793 5793 5794 5794 5794 5794 5793 5791 5789 5787 5786 5785 5784 5784 5784 5784 5782 5781 5781 5780 5780 5779 5777 5776 5774 5772 5771 5770 5767 5765 5765 5765 5762 5760 5758 5757 5757 5757 5757 5755 5755 5754 5753 5752 5750 5747 5745 5743 5741 5738 5736 5733 5731 5729 5726
5753 5753 5756 5762 5766 5769 5771 5773 5775 5776 5778 5778 5780 5781 5782 5782 5783 5783 5783 5782 5783 5784 5784 5785 5786 5787 5788 5788 5788 5788 5789 5788 5788 5788 5788 5789 5789 5788 5787 5786 5784 5783 5781 5779 5778 5778 5778 5778 5777 5776 5775 5774 5774 5773 5772 5771 5770 5767 5765 5764 5761 5758 5758 5757 5754 5751 5750 5751 5752 5752 5751 5750 5750 5749 5747 5745 5743 5741 5739 5737 5735 5733 5730 5728 5726 5723 5720
5751 5751 5754 5759 5763 5765 5767 5769 5771 5773 5775 5776 5777 5778 5779 5778 5778 5779 5779 5778 5778 5779 5780 5780 5780 5780 5781 5782 5782 5782 5782 5782 5782 5782 5783 5783 5783 5782 5781 5780 5779 5778 5776 5775 5774 5773 5772 5772 5771 5770 5769 5768 5769 5768 5766 5765 5763 5761 5758 5757 5754 5751 5748 5746 5744 5744 5745 5747 5747 5747 5747 5746 5745 5742 5740 5738 5737 5735 5733 5731 5729 5727 5725 5723 5720 5718 5715
5749 5750 5752 5755 5757 5760 5763 5765 5766 5768 5770 5771 5772 5773 5774 5774 5774 5774 5775 5774 5774 5774 5774 5773 5773 5773 5775 5776 5776 5776 5776 5776 5776 5777 5777 5778 5777 5776 5775 5774 5774 5773 5771 5770 5769 5768 5767 5766 5766 5765 5764 5764 5764 5763 5761 5759 5757 5754 5751 5748 5746 5744 5741 5740 5740 5741 5743 5743 5742 5741 5740 5739 5737 5735 5734 5733 5731 5729 5726 5724 5722 5721 5719 5717 5715 5712 5710
5746 5746 5748 5750 5752 5755 5759 5761 5762 5763 5764 5766 5766 5767 5768 5768 5768 5768 5769 5769 5768 5768 5768 5767 5768 5770 5771 5771 5771 5771 5771 5771 5771 5772 5772 5772 5771 5770 5769 5768 5767 5766 5765 5765 5764 5762 5761 5761 5761 5761 5760 5759 5758 5758 5755 5752 5751 5750 5746 5743 5742 5742 5741 5740 5741 5741 5740 5739 5736 5734 5733 5731 5730 5729 5727 5726 5724 5722 5720 5718 5716 5714 5713 5711 5709 5707 5704
5739 5740 5742 5744 5748 5752 5755 5757 5757 5758 5759 5760 5761 5761 5762 5762 5762 5763 5763 5763 5763 5763 5763 5763 5765 5766 5766 5765 5765 5766 5766 5766 5766 5766 5766 5766 5765 5764 5763 5762 5762 5761 5759 5759 5759 5757 5756 5756 5756 5755 5755 5754 5752 5752 5750 5747 5746 5746 5744 5742 5741 5741 5739 5737 5738 5737 5735 5733 5731 5730 5728 5726 5725 5723 5721 5719 5717 5715 5714 5712 5710 5709 5707 5705 5703 5701 5698
5735 5736 5737 5740 5744 5748 5751 5752 5753 5753 5754 5754 5755 5755 5756 5756 5757 5758 5758 5758 5758 5758 5758 5758 5759 5759 5760 5760 5760 5760 5760 5760 5760 5760 5760 5760 5759 5759 5758 5757 5756 5755 5754 5754 5754 5753 5752 5751 5750 5749 5749 5748 5746 5746 5744 5742 5740 5741 5740 5740 5739 5737 5734 5732 5731 5729 5728 5728 5726 5725 5724 5721 5719 5717 5715 5713 5711 5710 5708 5707 5705 5703 5701 5699 5697 5695 5693
5732 5734 5735 5737 5740 5742 5745 5747 5747 5748 5749 5749 5749 5750 5750 5751 5752 5753 5753 5753 5753 5753 5753 5754 5755 5754 5754 5753 5753 5753 5753 5753 5753 5754 5754 5755 5754 5753 5753 5752 5751 5750 5749 5748 5748 5748 5747 5746 5745 5744 5743 5742 5741 5739 5738 5736 5734 5733 5733 5733 5732 5731 5729 5727 5724 5723 5722 5721 5720 5719 5717 5715 5712 5711 5709 5707 5706 5704 5702 5701 5699 5697 5696 5694 5691 5689 5687
5728 5731 5732 5734 5735 5737 5739 5741 5742 5743 5744 5744 5744 5744 5745 5746 5747 5748 5748 5749 5749 5749 5749 5750 5750 5750 5749 5749 5749 5749 5748 5747 5748 5748 5748 5748 5748 5748 5747 5747 5746 5745 5744 5743 5743 5742 5741 5740 5739 5738 5737 5737 5735 5733 5732 5731 5729 5728 5727 5727 5726 5724 5722 5720 5718 5717 5715 5714 5713 5712 5710 5708 5706 5704 5703 5701 5700 5698 5697 5695 5693 5691 5689 5688 5686 5684 5682
5725 5727 5729 5731 5732 5734 5735 5736 5737 5738 5739 5739 5739 5739 5740 5741 5742 5743 5743 5745 5745 5745 5745 5746 5746 5746 5745 5745 5745 5745 5744 5743 5743 5742 5742 5742 5742 5742 5741 5741 5741 5740 5739 5738 5737 5736 5735 5733 5733 5732 5732 5731 5731 5729 5728 5726 5724 5723 5722 5721 5719 5718 5716 5714 5712 5710 5708 5707 5706 5706 5705 5703 5701 5699 5697 5695 5694 5692 5691 5689 5687 5685 5683 5682 5680 5678 5676
5722 5723 5725 5727 5728 5729 5730 5730 5731 5732 5732 5733 5734 5735 5736 5737 5738 5738 5739 5740 5741 5741 5741 5742 5742 5741 5741 5740 5740 5740 5740 5739 5738 5737 5737 5736 5735 5735 5735 5735 5734 5734 5733 5733 5731 5730 5729 5728 5727 5726 5726 5726 5725 5724 5723 5721 5720 5718 5717 5715 5713 5712 5711 5709 5707 5705 5703 5702 5701 5700 5699 5697 5695 5693 5691 5690 5688 5687 5685 5684 5682 5680 5677 5675 5673 5672 5671
5718 5719 5720 5721 5722 5723 5724 5725 5725 5726 5727 5728 5729 5730 5731 5732 5733 5734 5735 5735 5735 5735 5736 5736 5736 5736 5735 5735 5734 5734 5734 5733 5732 5731 5730 5730 5729 5729 5728 5728 5727 5727 5726 5726 5725 5724 5722 5721 5721 5720 5720 5720 5720 5719 5717 5716 5714 5713 5711 5710 5708 5706 5705 5704 5703 5701 5700 5698 5696 5694 5693 5690 5689 5687 5685 5684 5682 5681 5680 5678 5676 5674 5671 5669 5667 5666 5665
5715 5715 5716 5717 5717 5717 5718 5719 5719 5720 5721 5722 5722 5723 5724 5725 5726 5727 5728 5728 5729 5729 5729 5729 5729 5728 5728 5727 5727 5726 5726 5726 5725 5724 5723 5722 5722 5721 5721 5721 5721 5720 5719 5719 5718 5717 5716 5715 5714 5714 5714 5714 5714 5713 5711 5710 5708 5706 5705 5703 5702 5701 5699 5698 5697 5696 5694 5692 5690 5688 5686 5684 5682 5681 5679 5678 5676 5675 5674 5672 5670 5668 5666 5663 5660 5660 5659
5710 5711 5711 5712 5713 5714 5714 5714 5715 5715 5716 5716 5717 5717 5718 5718 5719 5719 5720 5721 5721 5721 5722 5722 5721 5721 5721 5721 5721 5720 5719 5719 5719 5718 5717 5716 5716 5715 5715 5714 5714 5713 5713 5712 5712 5710 5709 5707 5706 5706 5706 5707 5706 5706 5705 5703 5701 5699 5697 5697 5696 5695 5693 5692 5690 5689 5688 5686 5684 5683 5680 5678 5675 5674 5673 5671 5670 5669 5668 5667 5665 5663 5660 5657 5655 5654 5654
5705 5705 5706 5708 5709 5710 5710 5711 5711 5711 5711 5711 5712 5712 5712 5712 5713 5713 5713 5713 5713 5713 5714 5714 5714 5713 5713 5713 5714 5714 5713 5713 5712 5712 5711 5711 5710 5710 5709 5708 5707 5706 5706 5705 5704 5703 5702 5701 5700 5699 5699 5699 5698 5697 5697 5696 5693 5691 5690 5690 5689 5688 5686 5685 5684 5683 5681 5680 5678 5676 5674 5671 5669 5667 5665 5664 5663 5662 5661 5661 5660 5658 5654 5651 5649 5648 5648
5700 5701 5702 5703 5704 5704 5705 5706 5706 5707 5707 5707 5708 5708 5708 5708 5708 5707 5706 5706 5706 5706 5705 5706 5706 5706 5705 5705 5705 5705 5706 5705 5705 5704 5704 5703 5704 5703 5703 5702 5701 5700 5699 5698 5697 5696 5695 5695 5694 5693 5692 5691 5690 5690 5689 5688 5686 5685 5684 5683 5682 5681 5680 5679 5678 5677 5675 5673 5671 5669 5667 5664 5662 5660 5658 5656 5656 5655 5654 5654 5654 5652 5649 5646 5644 5643 5643
5696 5696 5697 5698 5699 5700 5700 5701 5701 5701 5702 5702 5703 5703 5703 5703 5703 5702 5701 5700 5700 5700 5699 5699 5699 5699 5699 5698 5697 5697 5697 5697 5697 5696 5696 5696 5695 5695 5695 5694 5694 5693 5692 5692 5691 5691 5690 5689 5688 5687 5685 5683 5683 5682 5682 5681 5680 5678 5677 5676 5675 5675 5673 5673 5672 5670 5667 5664 5663 5662 5660 5658 5655 5653 5650 5649 5649 5648 5648 5648 5647 5645 5643 5641 5640 5638 5638
5692 5692 5693 5694 5695 5695 5695 5696 5696 5697 5697 5697 5697 5697 5698 5698 5698 5697 5696 5696 5695 5695 5694 5694 5694 5693 5692 5691 5690 5690 5690 5690 5689 5689 5689 5688 5688 5687 5687 5687 5686 5686 5685 5684 5684 5683 5683 5682 5681 5680 5679 5678 5676 5675 5675 5674 5673 5672 5671 5670 5670 5669 5667 5666 5665 5663 5659 5657 5656 5655 5654 5651 5648 5646 5644 5643 5642 5641 5641 5641 5640 5638 5636 5635 5634 5634 5633
5688 5689 5690 5690 5690 5690 5691 5691 5692 5692 5692 5692 5692 5692 5692 5692 5691 5690 5690 5689 5689 5689 5688 5688 5688 5687 5686 5684 5684 5683 5682 5682 5682 5683 5683 5682 5682 5682 5681 5681 5680 5679 5678 5677 5676 5675 5675 5674 5673 5672 5672 5671 5670 5669 5668 5667 5666 5666 5666 5665 5664 5662 5660 5658 5656 5654 5652 5651 5650 5648 5647 5645 5642 5639 5638 5637 5636 5634 5634 5633 5633 5632 5631 5630 5629 5629 5628
5685 5686 5686 5686 5686 5686 5686 5686 5687 5687 5687 5687 5687 5687 5686 5686 5685 5684 5683 5682 5681 5681 5681 5681 5681 5680 5679 5678 5677 5676 5675 5675 5676 5676 5676 5676 5676 5676 5675 5674 5674 5673 5672 5670 5669 5669 5668 5667 5666 5666 5665 5664 5663 5662 5661 5661 5660 5660 5659 5658 5657 5655 5653 5651 5648 5646 5645 5644 5643 5641 5639 5638 5637 5635 5633 5632 5631 5630 5628 5628 5627 5627 5626 5625 5625 5624 5623
5682 5682 5682 5682 5682 5682 5682 5682 5682 5682 5682 5682 5682 5681 5681 5680 5679 5678 5677 5675 5674 5673 5673 5673 5673 5672 5671 5670 5669 5668 5667 5668 5669 5670 5670 5670 5669 5668 5667 5666 5665 5665 5664 5663 5663 5662 5662 5661 5661 5660 5659 5658 5657 5655 5655 5654 5654 5653 5653 5651 5650 5648 5647 5644 5642 5640 5638 5637 5636 5635 5633 5632 5631 5630 5629 5628 5626 5625 5624 5623 5623 5622 5621 5620 5620 5619 5619
5679 5679 5679 5679 5678 5678 5678 5678 5677 5677 5677 5676 5676 5675 5675 5673 5672 5671 5669 5668 5666 5665 5665 5665 5664 5663 5662 5661 5661 5661 5661 5662 5663 5663 5663 5664 5662 5660 5657 5657 5657 5657 5657 5657 5657 5656 5656 5656 5655 5654 5653 5652 5651 5650 5649 5648 5648 5647 5646 5645 5643 5642 5640 5639 5637 5635 5633 5632 5630 5629 5628 5627 5626 5625 5624 5623 5621 5620 5619 5619 5618 5617 5617 5616 5615 5615 5614
5676 5676 5676 5675 5674 5674 5674 5673 5673 5673 5672 5672 5671 5670 5669 5667 5666 5665 5663 5660 5659 5658 5657 5656 5655 5654 5652 5652 5652 5652 5653 5655 5656 5656 5656 5658 5657 5653 5650 5650 5652 5652 5651 5651 5651 5651 5650 5650 5649 5648 5647 5646 5646 5645 5644 5643 5642 5641 5640 5639 5638 5636 5635 5633 5631 5630 5628 5627 5625 5624 5623 5622 5621 5620 5619 5618 5617 5615 5615 5614 5614 5613 5612 5611 5611 5610 5610
5673 5673 5672 5671 5671 5670 5670 5670 5669 5669 5669 5668 5667 5666 5664 5663 5661 5659 5656 5654 5653 5652 5650 5648 5646 5644 5642 5642 5642 5643 5645 5647 5648 5649 5649 5650 5650 5647 5645 5646 5647 5647 5646 5646 5646 5645 5645 5644 5644 5643 5642 5642 5641 5640 5638 5638 5637 5636 5635 5634 5632 5631 5629 5628 5626 5624 5623 5622 5620 5619 5618 5617 5616 5615 5614 5613 5612 5611 5610 5609 5609 5608 5608 5607 5606 5606 5605
5670 5669 5669 5668 5667 5667 5667 5666 5666 5666 5665 5665 5663 5662 5660 5658 5656 5654 5652 5649 5647 5645 5642 5639 5637 5635 5634 5633 5634 5635 5637 5639 5641 5642 5642 5642 5642 5641 5641 5641 5642 5641 5641 5640 5640 5640 5639 5639 5639 5639 5638 5637 5636 5635 5634 5633 5632 5631 5630 5629 5627 5626 5624 5623 5621 5620 5619 5617 5616 5615 5614 5613 5612 5611 5609 5608 5607 5606 5606 5605 5604 5604 5603 5602 5601 5601 5601
5667 5667 5666 5665 5665 5664 5664 5663 5663 5662 5662 5660 5659 5657 5656 5654 5652 5649 5647 5645 5643 5639 5636 5633 5631 5630 5629 5628 5629 5630 5632 5634 5636 5636 5636 5636 5636 5636 5636 5636 5636 5636 5635 5635 5635 5635 5635 5635 5634 5634 5633 5632 5632 5631 5630 5629 5628 5627 5626 5624 5623 5621 5620 5618 5617 5615 5614 5613 5612 5611 5610 5609 5608 5607 5605 5604 5603 5603 5602 5601 5600 5599 5598 5597 5597 5596 5596
5664 5664 5663 5662 5661 5661 5660 5660 5659 5658 5657 5656 5655 5653 5652 5650 5648 5646 5644 5642 5639 5636 5633 5631 5629 5627 5627 5627 5627 5628 5630 5631 5632 5632 5632 5632 5632 5632 5632 5632 5632 5631 5631 5631 5631 5631 5631 5630 5630 5629 5629 5628 5627 5626 5625 5624 5623 5622 5621 5619 5618 5616 5615 5613 5612 5611 5610 5609 5608 5607 5606 5605 5604 5603 5601 5600 5599 5599 5598 5597 5596 5595 5594 5594 5593 5592 5592
5661 5660 5660 5659 5658 5657 5657 5656 5655 5654 5653 5652 5651 5650 5648 5646 5644 5643 5641 5639 5637 5635 5633 5631 5629 5628 5627 5627 5627 5628 5629 5630 5630 5630 5630 5629 5629 5629 5629 5628 5628 5628 5627 5627 5627 5627 5627 5626 5626 5625 5624 5623 5623 5622 5621 5620 5618 5617 5616 5615 5613 5612 5610 5609 5607 5606 5605 5604 5603 5603 5602 5601 5600 5599 5597 5596 5595 5595 5594 5594 5593 5592 5591 5591 5590 5589 5589
5657 5657 5656 5656 5655 5654 5653 5652 5652 5651 5650 5649 5648 5647 5645 5644 5642 5640 5639 5637 5635 5634 5633 5631 5630 5629 5628 5628 5628 5628 5629 5629 5628 5628 5628 5627 5627 5627 5626 5626 5625 5625 5624 5624 5624 5624 5623 5622 5621 5620 5619 5618 5618 5617 5616 5615 5614 5613 5612 5611 5609 5608 5606 5605 5603 5601 5600 5599 5598 5597 5597 5596 5596 5595 5593 5592 5591 5591 5590 5590 5589 5589 5588 5587 5587 5586 5585
5654 5654 5653 5652 5652 5651 5650 5649 5649 5648 5647 5646 5645 5644 5643 5642 5640 5639 5638 5636 5634 5633 5632 5631 5630 5629 5628 5628 5628 5628 5628 5628 5627 5627 5626 5625 5625 5624 5623 5623 5622 5621 5621 5621 5621 5620 5619 5618 5617 5616 5615 5614 5613 5612 5611 5611 5610 5609 5608 5607 5606 5605 5603 5602 5600 5598 5597 5595 5594 5593 5592 5591 5591 5590 5589 5588 5587 5586 5586 5585 5585 5585 5584 5583 5582 5582 5581
5651 5650 5650 5650 5649 5648 5647 5647 5646 5645 5644 5644 5643 5642 5641 5640 5639 5637 5636 5635 5633 5632 5631 5630 5630 5629 5628 5628 5627 5627 5627 5626 5625 5624 5623 5623 5622 5621 5620 5619 5619 5618 5618 5617 5616 5615 5614 5613 5612 5611 5610 5609 5608 5608 5607 5607 5606 5605 5605 5604 5603 5602 5601 5600 5598 5596 5594 5593 5591 5589 5588 5587 5586 5585 5584 5583 5582 5581 5581 5580 5580 5580 5579 5579 5578 5577 5577
5648 5648 5648 5647 5646 5645 5645 5644 5643 5642 5642 5641 5640 5640 5639 5638 5637 5636 5635 5633 5632 5631 5630 5629 5628 5627 5627 5626 5625 5625 5624 5624 5623 5622 5621 5620 5619 5618 5617 5616 5616 5615 5614 5613 5612 5611 5610 5609 5608 5607 5606 5605 5604 5604 5603 5603 5603 5602 5601 5601 5600 5599 5598 5597 5595 5594 5592 5590 5588 5587 5585 5584 5582 5581 5579 5578 5578 5577 5576 5576 5575 5575 5575 5574 5574 5573 5572
5646 5645 5645 5644 5644 5643 5642 5642 5641 5640 5639 5639 5638 5637 5636 5635 5634 5633 5632 5631 5630 5629 5628 5627 5626 5625 5625 5624 5623 5622 5621 5621 5620 5619 5618 5617 5616 5615 5614 5613 5612 5611 5610 5609 5608 5607 5606 5605 5604 5603 5602 5601 5601 5600 5600 5600 5599 5599 5598 5597 5596 5595 5594 5593 5592 5590 5589 5587 5585 5584 5582 5581 5579 5578 5576 5575 5573 5572 5572 5571 5571 5571 5570 5570 5569 5569 5568
5643 5643 5642 5642 5641 5640 5640 5639 5639 5638 5637 5636 5635 5634 5633 5632 5631 5630 5629 5628 5627 5626 5625 5624 5623 5623 5622 5621 5620 5619 5618 5617 5616 5616 5615 5614 5613 5612 5611 5610 5609 5608 5607 5606 5605 5604 5603 5602 5601 5600 5599 5598 5598 5597 5597 5596 5596 5595 5594 5593 5592 5591 5590 5589 5588 5587 5585 5583 5582 5580 5579 5578 5576 5575 5573 5572 5570 5569 5568 5567 5566 5566 5565 5565 5565 5564 5564